{"data":{"norad_id":33055,"intl_designator":"2008-030A","name":"SKYNET 5C","alt_names":[],"object_type":"PAYLOAD","status":"ACTIVE","operator":null,"country":"UK","launch_date":"2008-06-12","launch_site_code":"FRGUI","launch_vehicle":null,"mission":null,"orbit_class":"UNKNOWN","rcs_meters":29.0999,"size_class":null,"mass_kg":null,"dimensions":null,"purposes":["comms"],"wikipedia_slug":null,"has_3d_model":false,"image_url":null,"decayed_at":null,"tle_current":{"epoch":"2026-09-20T03:09:06.090336Z","epoch_age_seconds":46331,"freshness":"FRESH","line1":"1 33055U 08030A   26263.13132049 -.00000142  00000+0  00000+0 0  9995","line2":"2 33055   4.0251  75.8446 0004877 111.9924 200.6992  1.00272892 66907","mean_motion":1.00272892,"eccentricity":0.0004877,"inclination_deg":4.0251,"raan_deg":75.8446,"arg_perigee_deg":111.9924,"mean_anomaly_deg":200.6992,"bstar":0,"rev_number":6690,"period_min":1436.0810497018,"perigee_km":35765.721043331,"apogee_km":35806.84822019,"semimajor_km":42164.42163176,"source":"CELESTRAK","updated_at":"2026-09-20T09:00:35.133123Z"}}}